[[{"header":{"parameterUnit":"m.s-1","parameterCategory":1,"la1":30.2991,"la2":30.254,"lo1":-89.0895,"lo2":-89.0444,"dy":0.0017,"dx":0.0017,"nx":28,"ny":28,"refTime":"2023-11-10T03:00:00:Z","depth":0,"parameterNumber":2,"parameterNumberName":"U-component_of_WINDS"},"data":[0,0,0,0,0,0,0,0,0,0,0,0,0,0,0,0,0,0,0,0,0,0,0,0,0,0,0,0,0,0,0,0,0,0,0,0,0,0,0,0,0,0,0,0,0,0,0,0,0,0,0,0,0,0,0,0,0,0,-1.6953,-1.6952,0,-1.6843,-1.6842,-1.6841,-1.6778,-1.6778,-1.6777,-1.6777,-1.6664,-1.6662,-1.6659,0,0,0,0,0,0,0,0,0,0,0,0,0,-1.7111,-1.7108,-1.6954,-1.6952,-1.6951,-1.6844,-1.6842,-1.6841,-1.6778,-1.6778,-1.6777,-1.6777,-1.6665,-1.6662,-1.6659,0,0,0,0,0,0,0,0,0,0,0,0,0,-1.7026,-1.7107,-1.6954,-1.6907,-1.6901,-1.6844,-1.6842,-1.684,-1.6778,-1.6778,-1.6777,-1.6777,-1.6666,-1.6662,-1.6658,-1.6639,0,0,-1.6645,-1.6643,0,0,0,0,0,0,0,0,-1.7031,-1.702,-1.6915,-1.691,-1.6904,-1.6824,-1.6856,-1.6773,-1.6778,-1.6825,-1.6777,-1.6777,-1.6718,-1.6709,-1.6689,-1.6634,-1.6629,-1.6645,-1.6642,-1.6641,-1.6639,0,0,0,0,0,0,0,-1.7037,-1.7024,-1.691,-1.6913,-1.6907,-1.6891,-1.6879,-1.684,-1.6774,-1.6821,-1.6816,-1.6804,-1.6715,-1.6694,-1.6686,-1.6627,-1.6645,-1.6641,-1.6639,-1.6637,-1.6553,-1.6553,0,0,0,0,0,0,-1.705,-1.703,-1.6913,-1.6907,-1.6968,-1.6889,-1.6875,-1.685,-1.6775,-1.6763,-1.6804,-1.6801,-1.6701,-1.6691,-1.6682,-1.6656,-1.6641,-1.6637,-1.6634,-1.6553,-1.6553,-1.6553,0,0,0,0,0,0,-1.7054,-1.704,-1.6918,-1.6967,-1.695,-1.6886,-1.6859,-1.6848,-1.6827,-1.6762,-1.675,-1.6795,-1.67,-1.6688,-1.6651,-1.6651,-1.6635,-1.6631,-1.6552,-1.6553,-1.6553,-1.6603,0,0,0,0,0,0,-1.7058,-1.7042,-1.7033,-1.6967,-1.6948,-1.6888,-1.6859,-1.6846,-1.682,-1.6815,-1.675,-1.6739,-1.6699,-1.6657,-1.6647,-1.6645,-1.6628,-1.6552,-1.6552,-1.6553,-1.6601,-1.6605,-1.6608,0,0,0,0,0,-1.7064,-1.7051,-1.7033,-1.702,-1.6936,-1.6888,-1.6877,-1.6831,-1.682,-1.6811,-1.677,-1.6741,-1.6653,-1.6654,-1.6641,-1.6638,-1.6552,-1.6552,-1.6553,-1.6599,-1.6604,-1.6608,0,0,0,0,0,0,-1.7118,-1.7042,-1.7021,-1.6986,-1.6944,-1.6878,-1.6865,-1.6838,-1.6798,-1.6795,-1.674,-1.6726,-1.6694,-1.6663,-1.6665,-1.6617,-1.6599,-1.6597,-1.6639,-1.6643,-1.6646,-1.6654,-1.6624,0,0,0,0,0,-1.7127,-1.7094,-1.7029,-1.7005,-1.6985,-1.6929,-1.6906,-1.6875,-1.6829,-1.6811,-1.6767,-1.6724,-1.6687,-1.6663,-1.6625,-1.6596,-1.6582,-1.6588,-1.6592,-1.6596,-1.6594,-1.6578,-1.658,-1.6555,-1.6555,-1.6555,0,0,-1.7143,-1.7097,-1.7079,-1.7014,-1.6978,-1.6946,-1.6914,-1.6881,-1.6857,-1.6806,-1.6768,-1.6735,-1.6683,-1.6651,-1.6634,-1.6623,-1.6598,-1.6596,-1.6599,-1.6596,-1.6579,-1.6581,-1.6583,-1.6556,-1.6556,-1.6556,0,0,-1.7155,-1.7117,-1.7093,-1.7058,-1.7004,-1.6968,-1.6963,-1.69,-1.6876,-1.6838,-1.6799,-1.677,-1.6707,-1.6672,-1.6646,-1.6649,-1.6621,-1.6639,-1.6657,-1.6642,-1.6644,-1.6646,-1.6647,-1.6648,-1.6638,-1.6638,-1.6638,0,-1.7182,-1.7132,-1.7085,-1.7054,-1.7027,-1.6981,-1.6957,-1.6925,-1.6862,-1.6844,-1.6834,-1.6754,-1.6716,-1.6675,-1.6677,-1.6657,-1.665,-1.6645,-1.6648,-1.6649,-1.6649,-1.665,-1.6651,-1.664,-1.664,-1.664,-1.6639,0,-1.7168,-1.7134,-1.7121,-1.7062,-1.7034,-1.7007,-1.6956,-1.6933,-1.6905,-1.687,-1.6833,-1.6786,-1.6738,-1.6727,-1.6698,-1.6682,-1.6678,-1.6658,-1.6639,-1.6655,-1.6655,-1.6655,-1.6644,-1.6643,-1.6642,-1.6642,0,0,-1.7209,-1.7126,-1.7122,-1.7095,-1.7034,-1.7007,-1.6979,-1.6933,-1.6914,-1.6873,-1.6848,-1.6797,-1.678,-1.675,-1.6718,-1.6705,-1.6712,-1.6687,-1.6685,-1.6693,-1.6692,-1.6707,-1.6708,-1.6693,-1.6693,-1.6693,-1.6696,0,-1.7213,-1.716,-1.7117,-1.708,-1.7049,-1.7006,-1.6981,-1.6942,-1.6909,-1.6878,-1.6842,-1.6807,-1.6786,-1.6768,-1.6753,-1.6714,-1.671,-1.6713,-1.667,-1.6669,-1.6683,-1.6707,-1.6722,-1.6727,-1.6696,-1.6696,-1.6696,0,-1.7209,-1.7171,-1.713,-1.7074,-1.7059,-1.7038,-1.6993,-1.6964,-1.6919,-1.6896,-1.6865,-1.6832,-1.6802,-1.6787,-1.6744,-1.6747,-1.6727,-1.6706,-1.6705,-1.6699,-1.6683,-1.6701,-1.6728,-1.6729,-1.6695,-1.6695,-1.6695,0,-1.7244,-1.7182,-1.715,-1.7129,-1.7061,-1.7048,-1.7019,-1.6974,-1.6949,-1.6911,-1.6895,-1.6853,-1.683,-1.6799,-1.6757,-1.675,-1.6719,-1.67,-1.67,-1.6701,-1.6694,-1.6695,-1.6717,-1.6682,-1.6682,-1.6682,-1.6682,0,-1.7252,-1.7229,-1.7165,-1.7145,-1.7119,-1.7072,-1.7047,-1.7015,-1.6975,-1.6949,-1.691,-1.6887,-1.6832,-1.6802,-1.6769,-1.674,-1.673,-1.6711,-1.6702,-1.6714,-1.6716,-1.6699,-1.6698,-1.6683,-1.6682,-1.6682,-1.6682,0,-1.7286,-1.7242,-1.7204,-1.7145,-1.7129,-1.7113,-1.7062,-1.7042,-1.7008,-1.6976,-1.6966,-1.6912,-1.6876,-1.6831,-1.6779,-1.6757,-1.6731,-1.6718,-1.6746,-1.6741,-1.6743,-1.6744,-1.6755,-1.6754,-1.6721,-1.6721,-1.6721,0,-1.7294,-1.7275,-1.7214,-1.7194,-1.7167,-1.7135,-1.7111,-1.7064,-1.704,-1.6989,-1.6975,-1.6936,-1.6901,-1.6845,-1.6802,-1.6763,-1.6749,-1.6756,-1.6743,-1.6756,-1.6749,-1.6751,-1.6749,-1.6759,-1.6759,-1.676,-1.676,0,-1.7312,-1.7292,-1.7258,-1.7217,-1.7189,-1.7154,-1.7118,-1.7104,-1.705,-1.7026,-1.6988,-1.6962,-1.691,-1.6872,-1.6828,-1.6799,-1.6771,-1.6765,-1.6763,-1.6774,-1.6792,-1.6783,-1.6755,-1.6765,-1.6764,-1.6764,-1.6764,-1.6763,-1.7333,-1.7315,-1.727,-1.7234,-1.7202,-1.717,-1.7149,-1.7113,-1.708,-1.7035,-1.701,-1.6973,-1.693,-1.6868,-1.6841,-1.6812,-1.6802,-1.6799,-1.6798,-1.6797,-1.6801,-1.6797,-1.6804,-1.6804,-1.6804,-1.6804,-1.6803,0,-1.735,-1.7319,-1.7287,-1.7238,-1.721,-1.7187,-1.7146,-1.7124,-1.7093,-1.7055,-1.7023,-1.6981,-1.6944,-1.6899,-1.6859,-1.6845,-1.6831,-1.6836,-1.6836,-1.6831,-1.6813,-1.6819,-1.6848,-1.6848,-1.6848,-1.6848,-1.6848,-1.6848,-1.7355,-1.7324,-1.7299,-1.7253,-1.7222,-1.7186,-1.7165,-1.7135,-1.7105,-1.706,-1.7029,-1.7,-1.696,-1.6918,-1.6884,-1.6871,-1.6859,-1.6868,-1.6852,-1.6836,-1.6832,-1.6828,-1.6833,-1.6865,-1.6865,-1.6872,-1.6872,-1.6872]},{"header":{"parameterUnit":"m.s-1","parameterCategory":1,"la1":30.2991,"la2":30.254,"lo1":-89.0895,"lo2":-89.0444,"dy":0.0017,"dx":0.0017,"nx":28,"ny":28,"refTime":"2023-11-10T03:00:00:Z","depth":0,"parameterNumber":3,"parameterNumberName":"V-component_of_WINDS"},"data":[0,0,0,0,0,0,0,0,0,0,0,0,0,0,0,0,0,0,0,0,0,0,0,0,0,0,0,0,0,0,0,0,0,0,0,0,0,0,0,0,0,0,0,0,0,0,0,0,0,0,0,0,0,0,0,0,0,0,2.2502,2.2501,0,2.2466,2.2465,2.2465,2.2517,2.2519,2.2521,2.2523,2.248,2.2477,2.2474,0,0,0,0,0,0,0,0,0,0,0,0,0,2.2612,2.2609,2.2502,2.2501,2.2501,2.2466,2.2465,2.2465,2.2517,2.2519,2.2521,2.2524,2.248,2.2477,2.2474,0,0,0,0,0,0,0,0,0,0,0,0,0,2.2568,2.2609,2.2502,2.2523,2.2524,2.2466,2.2465,2.2465,2.2516,2.2519,2.2522,2.2525,2.2482,2.2477,2.2473,2.2391,0,0,2.246,2.2458,0,0,0,0,0,0,0,0,2.2571,2.2564,2.252,2.2521,2.2523,2.2499,2.2488,2.244,2.2516,2.2519,2.2523,2.2526,2.2483,2.2479,2.2466,2.2389,2.2387,2.246,2.2457,2.2455,2.2454,0,0,0,0,0,0,0,2.2574,2.2566,2.2487,2.2519,2.2521,2.2533,2.253,2.2479,2.2486,2.2519,2.2523,2.2518,2.2485,2.247,2.2465,2.2386,2.246,2.2456,2.2453,2.2451,2.2242,2.2239,0,0,0,0,0,0,2.2575,2.2568,2.2489,2.2486,2.2555,2.2529,2.2525,2.2504,2.2487,2.2487,2.2516,2.2521,2.2476,2.247,2.2464,2.2368,2.2455,2.2451,2.2449,2.2245,2.2241,2.2238,0,0,0,0,0,0,2.2577,2.2567,2.249,2.2528,2.252,2.2524,2.2499,2.2502,2.2487,2.2484,2.2485,2.25,2.2478,2.247,2.241,2.2367,2.2449,2.2445,2.2248,2.2244,2.2239,2.2175,0,0,0,0,0,0,2.258,2.2568,2.2537,2.2527,2.2517,2.2437,2.2497,2.2499,2.248,2.2486,2.247,2.2469,2.248,2.2416,2.2405,2.2363,2.2442,2.2252,2.2246,2.2241,2.218,2.2168,2.2158,0,0,0,0,0,2.2584,2.2518,2.2535,2.2525,2.2479,2.2435,2.2429,2.2443,2.2477,2.2446,2.2444,2.247,2.2374,2.2409,2.2398,2.2353,2.2255,2.2248,2.2241,2.2185,2.2171,2.2158,0,0,0,0,0,0,2.252,2.2517,2.2536,2.2466,2.2451,2.2444,2.2405,2.2427,2.24,2.2406,2.2424,2.242,2.2355,2.2348,2.2388,2.2274,2.232,2.231,2.2281,2.2267,2.2256,2.2259,2.2438,0,0,0,0,0,2.2498,2.2464,2.2463,2.2401,2.2392,2.24,2.2381,2.2394,2.2378,2.237,2.2364,2.2346,2.2312,2.2289,2.2257,2.218,2.2177,2.2144,2.2133,2.2123,2.2115,2.2076,2.2061,2.2216,2.2216,2.2216,0,0,2.2452,2.2446,2.2423,2.2388,2.2377,2.2341,2.2394,2.2351,2.2324,2.2363,2.2307,2.2302,2.2283,2.2214,2.2183,2.2206,2.2072,2.2115,2.2108,2.2104,2.2067,2.2053,2.204,2.2211,2.2212,2.2213,0,0,2.2349,2.2341,2.229,2.228,2.2264,2.227,2.2258,2.2248,2.2247,2.2192,2.2221,2.2188,2.2128,2.2114,2.2099,2.1995,2.2018,2.1983,2.1925,2.1886,2.1874,2.1863,2.1827,2.1814,2.1975,2.1975,2.1975,0,2.2293,2.224,2.226,2.2218,2.2202,2.2239,2.2187,2.2175,2.2148,2.2136,2.2163,2.2091,2.208,2.201,2.1985,2.1971,2.1958,2.1985,2.1875,2.1864,2.1854,2.182,2.1806,2.1971,2.1971,2.1972,2.1972,0,2.2173,2.2136,2.2096,2.2074,2.2053,2.2006,2.2018,2.1995,2.201,2.2013,2.1956,2.1946,2.1914,2.1898,2.191,2.1829,2.1844,2.1872,2.1918,2.1835,2.1804,2.179,2.1965,2.1967,2.1968,2.1969,0,0,2.2027,2.2019,2.2004,2.1996,2.1983,2.1954,2.1909,2.188,2.186,2.1841,2.1804,2.1754,2.1781,2.1764,2.1776,2.1742,2.1662,2.1774,2.1774,2.1755,2.1573,2.1553,2.1538,2.1677,2.1675,2.1673,2.1575,0,2.1926,2.1851,2.1869,2.1793,2.176,2.1796,2.1756,2.1744,2.1746,2.1717,2.1718,2.1684,2.1721,2.1711,2.1679,2.1678,2.1626,2.1685,2.1642,2.164,2.1647,2.1521,2.1499,2.1407,2.1563,2.1561,2.1559,0,2.1798,2.1778,2.17,2.1696,2.1682,2.1647,2.1624,2.1596,2.1582,2.1586,2.1569,2.1588,2.1543,2.159,2.1528,2.1568,2.1552,2.1549,2.1546,2.1542,2.1595,2.1515,2.1378,2.1365,2.154,2.1541,2.1543,0,2.1702,2.1655,2.1603,2.1595,2.1587,2.1562,2.1557,2.1547,2.1529,2.1508,2.1497,2.147,2.1455,2.1433,2.1444,2.1477,2.138,2.1428,2.1382,2.1382,2.136,2.1361,2.1219,2.1348,2.1348,2.1348,2.1349,0,2.1587,2.1538,2.1561,2.1528,2.1475,2.1496,2.1442,2.1442,2.1433,2.1401,2.1429,2.1398,2.1415,2.1385,2.1393,2.1342,2.1334,2.1336,2.1339,2.1334,2.1334,2.1323,2.133,2.1345,2.1346,2.1346,2.1347,0,2.147,2.1483,2.1429,2.1428,2.1427,2.1388,2.1386,2.1356,2.1362,2.1321,2.1313,2.132,2.1287,2.1296,2.1259,2.1265,2.12,2.121,2.1205,2.1208,2.1162,2.1167,2.1009,2.099,2.113,2.1128,2.1127,0,2.1397,2.1361,2.1357,2.134,2.1334,2.1304,2.1287,2.1307,2.1288,2.1272,2.1244,2.1214,2.1191,2.1136,2.1137,2.1109,2.1119,2.1066,2.1115,2.1112,2.112,2.1122,2.1119,2.1056,2.1055,2.1053,2.1052,0,2.1266,2.1275,2.1251,2.123,2.121,2.1194,2.118,2.1163,2.1181,2.1159,2.1127,2.1109,2.1074,2.1043,2.1019,2.1012,2.1035,2.1037,2.1025,2.102,2.1019,2.102,2.1179,2.104,2.1042,2.1042,2.1043,2.1043,2.1169,2.114,2.1134,2.1107,2.1099,2.1086,2.1059,2.1063,2.1037,2.1011,2.1024,2.0987,2.0976,2.0946,2.0937,2.0907,2.0928,2.091,2.0906,2.0901,2.0896,2.1024,2.0903,2.0903,2.0903,2.0904,2.0904,0,2.1041,2.104,2.1015,2.0996,2.0975,2.1001,2.0988,2.0968,2.0936,2.0925,2.0903,2.0867,2.0839,2.0839,2.0812,2.0789,2.0799,2.0781,2.0783,2.0782,2.0879,2.0893,2.0774,2.0774,2.0774,2.0774,2.0774,2.0774,2.0972,2.0924,2.0933,2.0882,2.0881,2.0847,2.0837,2.0826,2.0818,2.0777,2.0755,2.0756,2.0749,2.0723,2.0698,2.0699,2.0688,2.0667,2.0671,2.0762,2.0775,2.0787,2.08,2.0664,2.0664,2.0577,2.0576,2.0576]}]]